Regional Weather Roundup
Issued by NWS Goodland, KS

Home | Current Version | Previous Version | Graphics & Text | Print | Product List | Glossary On
Versions: 1 2 3 4 5 6 7 8 9 10 11 12 13 14 15 16 17 18 19 20 21 22 23 24 25 26 27 28 29 30 31 32 33 34 35 36 37 38 39 40 41 42 43 44 45 46 47 48 49 50
000
ASUS43 KGLD 292008
RWRGLD

GOODLAND FORECAST AREA HOURLY WEATHER ROUNDUP
NATIONAL WEATHER SERVICE GOODLAND KS
200 PM MDT SUN MAR 29 2015

...OFFICIAL OBSERVATIONS...

CITY           SKY/WX    TMP DP  RH WIND       PRES   REMARKS
GOODLAND KS    SUNNY     64  21  19 N23G31    30.20F
HILL CITY KS   SUNNY     67  25  20 N22G33    30.16F
IMPERIAL NEB     N/A     62  23  22 N15G26    30.20F
MCCOOK NEB     SUNNY     66  21  18 N21G30    30.17F
AKRON CO       SUNNY     59  23  25 N23       30.24F
BURLINGTON CO  SUNNY     63  20  19 N17G29    30.23F
LIMON CO       SUNNY     57  22  25 N7        30.27F
$$

...UNOFFICIAL OBSERVATIONS...

CITY           SKY/WX    TMP DP  RH WIND       PRES   REMARKS
COLBY KS       SUNNY     64  30  27 N16G29    30.19F
GOVE KS          N/A     66  32  28 MISG        N/A
LENORA KS        N/A     63  32  31 MISG        N/A
NORTON KS      SUNNY     64  18  16 NW18G25   30.14F
SHARON SPRINGS   N/A     65  26  23 N16G29      N/A
KIT CARSON CO    N/A     63  25  23 MISG        N/A
YUMA CO          N/A     61  22  22 N18         N/A
$$



USA.gov is the U.S. government's official web portal to all federal, state and local government web resources and services.